Location: Eppenbrunn
(49.1158°N, 7.5601°E)
Time: 15:30:25
(UTC+00:00)

IGS 5A - Pass Details

Date: 16 August 2020
Orbit: 583 x 588 km, 97.6° (Epoch: 26 September)

Event Time Altitude Azimuth Distance (km) Brightness Sun altitude
Exits shadow 20:36:42 23° 175° (S) 1,263 4.7 -16.3°
Maximum altitude 20:39:14 75° 258° (WSW) 616 3.6 -16.6°
Drops below altitude 10° 20:43:24 10° 344° (NNW) 1,927 7.1 -17.1°
Sets 20:45:35 0° 346° (NNW) 2,832 8.0 -17.3°
